Location: Allen Lane School
(37.8198°N, 89.7382°W)
Time: 13:21:47
(UTC+00:00)

Cosmos 2278 - Pass Details

Date: 08 December 2021
Orbit: 839 x 853 km, 71.1° (Epoch: 19 January)

Event Time Altitude Azimuth Distance (km) Brightness Sun altitude
Rises 23:04:30 0° 343° (NNW) 3,425 6.8 -5.2°
Reaches altitude 10° 23:07:03 10° 349° (N) 2,484 6.0 -5.7°
Maximum altitude 23:12:34 48° 63° (ENE) 1,097 3.9 -6.6°
Drops below altitude 10° 23:18:01 10° 138° (SE) 2,462 5.9 -7.6°
Sets 23:20:32 0° 144° (SE) 3,392 6.7 -8.1°
